Flag for Canada Weather past 2 weeks in Sherbrooke, Quebec, Canada

Now
32 °F

Clear.


Feels Like: 32 °F
Forecast: 36 / 55 °F
Wind: No wind

Location: Sherbrooke

Current Time: Oct 25, 2014 at 3:18:46 AM

Latest Report: Oct 25, 2014 at 3:00 AM


Visibility: 9 mi

Pressure: 29.77 "Hg

Humidity: 100%

Dew point: 32 °F

Location of SherbrookeLocation

Historic Weather in Sherbrooke — Graph

°F

Sherbrooke temperature yesterday

Maximum temperature yesterday: 46 °F (at 2:00 PM)
Minimum temperature yesterday: 41 °F (at 4:00 AM)
Average temperature yesterday: 43 °F

Past Weeks' High & Low Weather Summary

 TemperatureHumidityPressure
High79 °F (Oct 15, 2:00 PM)100% (Oct 11, 3:00 AM)30.31 "Hg (Oct 11, 3:00 AM)
Low28 °F (Oct 13, 7:00 AM)37% (Oct 13, 1:00 PM)29.47 "Hg (Oct 18, 3:59 PM)
Average49 °F82%29.96 "Hg
* Reported Oct 10 2:00 AM — Oct 25 2:00 AM, Sherbrooke, Weather by CustomWeather, © 2014

Note: Actual official high and low records may vary slightly from our data, if they occured in-between our weather recording intervals... More about our weather records

Advertising

Sherbrooke weather history for previous 24 hours

 ConditionsComfort  
Time TempWeatherWind HumidityBarometerVisibility
2:00 AM
Oct 25
34 °FClear.No wind100%29.78 "Hg9 mi
1:00 AM36 °FOvercast.2 mph93%29.79 "Hg9 mi
12:00 AM37 °FClear.2 mph93%29.80 "Hg9 mi
11:00 PM
Oct 24
41 °FOvercast.2 mph87%29.81 "Hg9 mi
10:00 PM41 °FQuite cool.5 mph76%29.82 "Hg9 mi
9:00 PM43 °FOvercast.3 mph76%29.82 "Hg9 mi
8:00 PM43 °FOvercast.6 mph76%29.83 "Hg9 mi
4:00 PM45 °FOvercast.3 mph81%29.80 "Hg9 mi
3:00 PM46 °FMostly cloudy.5 mph87%29.80 "Hg9 mi
2:54 PM46 °FMostly cloudy.5 mph87%29.80 "Hg9 mi
2:00 PM46 °FOvercast.7 mph82%29.80 "Hg9 mi
9:00 AM43 °FQuite cool.5 mph93%29.83 "HgN/A
8:03 AM41 °FLow clouds.6 mph100%29.84 "Hg8 mi
7:00 AM41 °FOvercast.7 mph93%29.83 "Hg9 mi
6:00 AM41 °FOvercast.5 mph93%29.83 "Hg9 mi
5:00 AM41 °FMostly cloudy.7 mph100%29.82 "HgN/A
4:00 AM41 °FQuite cool.8 mph100%29.82 "Hg9 mi
3:00 AM43 °FLow clouds.7 mph93%29.83 "Hg9 mi
Weather by CustomWeather, © 2014

See weather overviewHow to use our weather pages